When you browse on this site, cookies collect data to enhance your experience and personalize the content and advertising you see.
Visit our Privacy Policy to learn more. By continuing to use the site, you agree to this use of cookies and data.
  • En España
  • Lista de países
  • Para 7 días
  • Temperatura del agua
  • Mapa Satelital
  • El tiempo en el mapa
  • Informadores
  • user-avatar
    Iniciar sesión

    Tiempo cada hora Andryushkovo

    Hoy, 21 Marzo, Jueves

    Tiempo Temperatura Precipitaciones Viento Presión Humedad
    00:00 -2°C° 0 mm 2 mps 748 mmHg 90%
    01:00 -3°C° 0 mm 2 mps 748 mmHg 91%
    02:00 -3°C° 0 mm 2 mps 748 mmHg 91%
    03:00 -2°C° 0 mm 3 mps 748 mmHg 91%
    04:00 -2°C° 0 mm 2 mps 747 mmHg 91%
    05:00 -2°C° 0 mm 2 mps 747 mmHg 91%
    06:00 -2°C° 0 mm 2 mps 747 mmHg 90%
    07:00 -2°C° 0 mm 3 mps 746 mmHg 87%
    08:00 -1°C° 0 mm 3 mps 746 mmHg 85%
    09:00 -1°C° 0 mm 3 mps 746 mmHg 82%
    10:00 -1°C° 0.1 mm 4 mps 746 mmHg 82%
    11:00 -1°C° 0.1 mm 4 mps 745 mmHg 81%
    12:00 0°C° 0.1 mm 4 mps 745 mmHg 80%
    13:00 0°C° 0.1 mm 4 mps 745 mmHg 80%
    14:00 0°C° 0.1 mm 4 mps 745 mmHg 81%
    15:00 0°C° 0.1 mm 4 mps 745 mmHg 81%
    16:00 +1°C° 0 mm 3 mps 745 mmHg 84%
    17:00 +1°C° 0 mm 3 mps 745 mmHg 87%
    18:00 +1°C° 0 mm 2 mps 745 mmHg 90%
    19:00 +1°C° 0 mm 2 mps 745 mmHg 91%
    20:00 -1°C° 0 mm 2 mps 745 mmHg 92%
    21:00 -2°C° 0 mm 3 mps 745 mmHg 94%
    22:00 -2°C° 0 mm 3 mps 745 mmHg 94%
    23:00 -2°C° 0 mm 3 mps 745 mmHg 93%

    Mañana, 22 Marzo, Viernes

    Tiempo Temperatura Precipitaciones Viento Presión Humedad
    00:00 -2°C° 0 mm 2 mps 745 mmHg 93%
    01:00 -2°C° 0 mm 2 mps 745 mmHg 92%
    02:00 -2°C° 0 mm 2 mps 744 mmHg 91%
    03:00 -2°C° 0 mm 2 mps 744 mmHg 90%
    04:00 -2°C° 0 mm 3 mps 744 mmHg 90%
    05:00 -2°C° 0 mm 3 mps 743 mmHg 91%
    06:00 -3°C° 0 mm 4 mps 742 mmHg 91%
    07:00 -2°C° 0.1 mm 4 mps 741 mmHg 90%
    08:00 -1°C° 0.1 mm 5 mps 740 mmHg 89%
    09:00 -2°C° 0.1 mm 6 mps 739 mmHg 88%
    10:00 -1°C° 0.8 mm 6 mps 738 mmHg 88%
    11:00 -1°C° 0.8 mm 7 mps 737 mmHg 89%
    12:00 -1°C° 0.8 mm 7 mps 736 mmHg 89%
    13:00 -1°C° 0.7 mm 8 mps 735 mmHg 88%
    14:00 -1°C° 0.7 mm 8 mps 735 mmHg 87%
    15:00 -1°C° 0.7 mm 9 mps 735 mmHg 86%
    16:00 -3°C° 0.1 mm 9 mps 735 mmHg 84%
    17:00 -3°C° 0.1 mm 9 mps 736 mmHg 83%
    18:00 -4°C° 0.1 mm 10 mps 736 mmHg 82%
    19:00 -4°C° 0.3 mm 9 mps 736 mmHg 83%
    20:00 -4°C° 0.3 mm 9 mps 737 mmHg 85%
    21:00 -5°C° 0.3 mm 8 mps 737 mmHg 87%
    22:00 -5°C° 0.6 mm 8 mps 737 mmHg 88%
    23:00 -5°C° 0.6 mm 8 mps 737 mmHg 89%

    Pasado mañana, 23 Marzo, Sábado

    Tiempo Temperatura Precipitaciones Viento Presión Humedad
    00:00 -5°C° 0.6 mm 8 mps 737 mmHg 90%
    01:00 -4°C° 0.4 mm 8 mps 738 mmHg 90%
    02:00 -4°C° 0.4 mm 8 mps 739 mmHg 90%
    03:00 -2°C° 0.4 mm 8 mps 739 mmHg 90%
    04:00 -2°C° 0.1 mm 8 mps 740 mmHg 91%
    05:00 -2°C° 0.1 mm 7 mps 741 mmHg 91%
    06:00 -2°C° 0.1 mm 7 mps 742 mmHg 92%
    07:00 -3°C° 0 mm 7 mps 743 mmHg 91%
    08:00 -3°C° 0 mm 6 mps 744 mmHg 91%
    09:00 -3°C° 0 mm 6 mps 745 mmHg 90%
    10:00 -3°C° 0.1 mm 6 mps 745 mmHg 89%
    11:00 -2°C° 0.1 mm 5 mps 746 mmHg 89%
    12:00 -2°C° 0.1 mm 5 mps 746 mmHg 88%
    13:00 -2°C° 0 mm 5 mps 746 mmHg 87%
    14:00 -1°C° 0 mm 4 mps 746 mmHg 87%
    15:00 -1°C° 0 mm 4 mps 746 mmHg 87%
    16:00 0°C° 0 mm 3 mps 746 mmHg 87%
    17:00 0°C° 0 mm 3 mps 747 mmHg 87%
    18:00 +1°C° 0 mm 2 mps 747 mmHg 87%
    19:00 -1°C° 0 mm 2 mps 747 mmHg 87%
    20:00 +1°C° 0 mm 1 mps 747 mmHg 87%
    21:00 +1°C° 0 mm 1 mps 747 mmHg 87%
    22:00 +1°C° 0 mm 1 mps 747 mmHg 87%
    23:00 0°C° 0 mm 1 mps 746 mmHg 87%

    24 Marzo, Domingo

    Tiempo Temperatura Precipitaciones Viento Presión Humedad
    00:00 0°C° 0 mm 1 mps 746 mmHg 86%
    01:00 0°C° 0 mm 1 mps 746 mmHg 87%
    02:00 -3°C° 0 mm 2 mps 745 mmHg 87%
    03:00 -3°C° 0 mm 2 mps 745 mmHg 88%
    04:00 -3°C° 0 mm 2 mps 744 mmHg 88%
    05:00 -4°C° 0 mm 3 mps 744 mmHg 88%
    06:00 -4°C° 0 mm 3 mps 743 mmHg 88%
    07:00 -4°C° 0 mm 4 mps 743 mmHg 87%
    08:00 -3°C° 0 mm 4 mps 742 mmHg 87%
    09:00 -4°C° 0 mm 5 mps 742 mmHg 86%
    10:00 -2°C° 0.3 mm 5 mps 742 mmHg 88%
    11:00 -2°C° 0.3 mm 5 mps 741 mmHg 90%
    12:00 -3°C° 0.3 mm 6 mps 741 mmHg 92%
    13:00 -1°C° 0.2 mm 5 mps 740 mmHg 93%
    14:00 -1°C° 0.2 mm 5 mps 740 mmHg 94%
    15:00 -1°C° 0.2 mm 5 mps 740 mmHg 95%
    16:00 -1°C° 0 mm 4 mps 740 mmHg 94%
    17:00 0°C° 0 mm 3 mps 740 mmHg 93%
    18:00 +1°C° 0 mm 2 mps 740 mmHg 92%
    19:00 +1°C° 0.1 mm 2 mps 740 mmHg 90%
    20:00 0°C° 0.1 mm 3 mps 740 mmHg 88%
    21:00 -1°C° 0.1 mm 3 mps 740 mmHg 86%
    22:00 -1°C° 0 mm 3 mps 740 mmHg 86%
    23:00 -2°C° 0 mm 3 mps 740 mmHg 87%

    25 Marzo, Lunes

    Tiempo Temperatura Precipitaciones Viento Presión Humedad
    00:00 -4°C° 0 mm 3 mps 740 mmHg 88%
    01:00 -4°C° 0 mm 3 mps 740 mmHg 88%
    02:00 -4°C° 0 mm 3 mps 740 mmHg 88%
    03:00 -5°C° 0 mm 3 mps 740 mmHg 88%
    04:00 -5°C° 0 mm 3 mps 740 mmHg 89%
    05:00 -5°C° 0 mm 3 mps 740 mmHg 89%
    06:00 -6°C° 0 mm 3 mps 740 mmHg 90%
    07:00 -5°C° 0 mm 3 mps 740 mmHg 87%
    08:00 -4°C° 0 mm 4 mps 740 mmHg 84%
    09:00 -3°C° 0 mm 4 mps 741 mmHg 81%
    10:00 -3°C° 0 mm 4 mps 741 mmHg 76%
    11:00 -2°C° 0 mm 4 mps 741 mmHg 71%
    12:00 -1°C° 0 mm 4 mps 741 mmHg 67%
    13:00 -1°C° 0 mm 4 mps 740 mmHg 64%
    14:00 -1°C° 0 mm 4 mps 740 mmHg 61%
    15:00 0°C° 0 mm 4 mps 740 mmHg 58%
    16:00 0°C° 0 mm 3 mps 740 mmHg 61%
    17:00 0°C° 0 mm 3 mps 740 mmHg 64%
    18:00 +1°C° 0 mm 2 mps 739 mmHg 67%
    19:00 -1°C° 0 mm 2 mps 739 mmHg 70%
    20:00 -1°C° 0 mm 3 mps 739 mmHg 72%
    21:00 -2°C° 0 mm 3 mps 739 mmHg 75%
    22:00 -2°C° 0 mm 3 mps 739 mmHg 76%
    23:00 -2°C° 0 mm 3 mps 739 mmHg 77%

    26 Marzo, Martes

    Tiempo Temperatura Precipitaciones Viento Presión Humedad
    00:00 -3°C° 0 mm 4 mps 739 mmHg 78%
    01:00 -3°C° 0 mm 4 mps 739 mmHg 79%
    02:00 -3°C° 0 mm 4 mps 739 mmHg 79%
    03:00 -3°C° 0 mm 4 mps 738 mmHg 80%
    04:00 -2°C° 0 mm 3 mps 738 mmHg 79%
    05:00 -2°C° 0 mm 3 mps 738 mmHg 79%
    06:00 -2°C° 0 mm 3 mps 738 mmHg 79%
    07:00 -2°C° 0 mm 3 mps 738 mmHg 75%
    08:00 -2°C° 0 mm 4 mps 738 mmHg 72%
    09:00 -1°C° 0 mm 4 mps 739 mmHg 69%
    10:00 0°C° 0 mm 4 mps 739 mmHg 65%
    11:00 +1°C° 0 mm 4 mps 739 mmHg 61%
    12:00 +3°C° 0 mm 4 mps 739 mmHg 57%
    13:00 +3°C° 0 mm 4 mps 739 mmHg 57%
    14:00 +3°C° 0 mm 4 mps 739 mmHg 57%
    15:00 +3°C° 0 mm 4 mps 739 mmHg 57%
    16:00 +1°C° 0 mm 4 mps 739 mmHg 62%
    17:00 +2°C° 0 mm 3 mps 740 mmHg 68%
    18:00 +1°C° 0 mm 3 mps 740 mmHg 74%
    19:00 0°C° 0 mm 3 mps 740 mmHg 76%
    20:00 -1°C° 0 mm 3 mps 741 mmHg 79%
    21:00 -1°C° 0 mm 3 mps 741 mmHg 81%
    22:00 -2°C° 0 mm 3 mps 742 mmHg 83%
    23:00 -2°C° 0 mm 3 mps 742 mmHg 85%
    Mostrar más